Weather History for Springfield, IL

Change the Weather History Date:

Friday, September 28, 2012

  Actual Average Record
Temperature  
Mean Temperature 60 °F 62 °F  
Max Temperature 72 °F 74 °F 94 °F (1953)
Min Temperature 48 °F 49 °F 33 °F (1942)
Degree Days  
Heating Degree Days 5 6  
Month to date heating degree days 75 65  
Since 1 July heating degree days 75 70  
Cooling Degree Days 0 2  
Month to date cooling degree days 119 124  
Year to date cooling degree days 1520 1094  
Growing Degree Days 11 (Base 50)    
Moisture  
Dew Point 46 °F    
Average Humidity 62    
Maximum Humidity 86    
Minimum Humidity 37    
Precipitation  
Precipitation 0.00 in 0.09 in 2.26 in (1911)
Month to date precipitation 2.89 2.71  
Year to date precipitation 20.62 28.36  
Snow  
Snow 0.00 in 0.00 in 0.00 in ()
Month to date snowfall 0.0 0.0  
Since 1 July snowfall 0.0 0.0  
Since 1 September snowfall 0.0 0.0  
Snow Depth 0.00 in    
Sea Level Pressure  
Sea Level Pressure 30.15 in    
Wind  
Wind Speed 5 mph (North)    
Max Wind Speed 15 mph    
Max Gust Speed 20 mph    
Visibility 10 miles    
Events      
T = Trace of Precipitation, MM = Missing Value Source: NWS Daily Summary

Daily Weather History Graph

Daily Weather History Graph

Search for Another Location

Airport:

Trip Planner

Search our weather history database for the weather conditions in past years. The results will help you decide how hot, cold, wet, or windy it might be!

Date:

Astronomy

Sep. 28, 2012 Rise Set
Actual Time 6:52 AM CDT 6:45 PM CDT
Civil Twilight 6:25 AM CDT 7:12 PM CDT
Nautical Twilight 5:54 AM CDT 7:43 PM CDT
Astronomical Twilight 5:22 AM CDT 8:15 PM CDT
Moon 5:47 PM CDT (9/28) 5:23 AM CDT (9/28)
Length of Visible Light 12h 46m
Length of Day
11h 52m
Waxing Gibbous, 98% of the Moon is Illuminated
Sep 28
Waxing Gibbous
Sep 29
Full
Oct 8
Last Quarter
Oct 15
New
Oct 21
First Quarter

Hourly Weather History & Observations

Time (CDT) Temp. Dew Point Humidity Pressure Visibility Wind Dir Wind Speed Gust Speed Precip Events Conditions
12:52 AM 57.0 °F 46.0 °F 67% 30.16 in 10.0 mi ENE 10.4 mph - N/A   Mostly Cloudy
1:52 AM 55.9 °F 46.9 °F 72% 30.16 in 10.0 mi NE 5.8 mph - N/A   Overcast
2:52 AM 54.0 °F 46.9 °F 77% 30.15 in 10.0 mi ENE 4.6 mph - N/A   Clear
3:52 AM 53.6 °F 48.2 °F 82% 30.16 in 10.0 mi North 3.5 mph - N/A   Mostly Cloudy
4:52 AM 52.0 °F 46.9 °F 83% 30.16 in 10.0 mi North 4.6 mph - N/A   Mostly Cloudy
5:52 AM 51.1 °F 46.9 °F 86% 30.16 in 10.0 mi North 3.5 mph - N/A   Clear
6:52 AM 51.8 °F 46.4 °F 82% 30.17 in 10.0 mi Calm Calm - N/A   Clear
7:52 AM 51.1 °F 46.9 °F 86% 30.19 in 7.0 mi North 5.8 mph - N/A   Clear
8:52 AM 57.0 °F 48.9 °F 74% 30.20 in 10.0 mi North 6.9 mph - N/A   Clear
9:52 AM 61.0 °F 46.0 °F 58% 30.21 in 10.0 mi NNE 9.2 mph - N/A   Clear
10:52 AM 64.0 °F 44.1 °F 48% 30.21 in 10.0 mi NNE 11.5 mph 16.1 mph N/A   Clear
11:52 AM 66.9 °F 44.1 °F 44% 30.19 in 10.0 mi NNE 12.7 mph - N/A   Clear
12:52 PM 68.0 °F 44.1 °F 42% 30.17 in 10.0 mi North 9.2 mph - N/A   Clear
1:52 PM 70.0 °F 43.0 °F 38% 30.14 in 10.0 mi North 9.2 mph 18.4 mph N/A   Clear
2:52 PM 71.1 °F 44.1 °F 38% 30.13 in 10.0 mi North 12.7 mph 19.6 mph N/A   Clear
3:52 PM 71.1 °F 45.0 °F 39% 30.11 in 10.0 mi NE 5.8 mph - N/A   Clear
4:52 PM 71.1 °F 45.0 °F 39% 30.11 in 10.0 mi North 5.8 mph - N/A   Clear
5:52 PM 70.0 °F 46.0 °F 42% 30.10 in 10.0 mi NW 5.8 mph - N/A   Clear
6:52 PM 63.0 °F 46.9 °F 56% 30.10 in 10.0 mi NNW 4.6 mph - N/A   Clear
7:52 PM 60.1 °F 48.0 °F 64% 30.11 in 10.0 mi NNW 3.5 mph - N/A   Clear
8:52 PM 55.9 °F 46.9 °F 72% 30.12 in 10.0 mi NNW 3.5 mph - N/A   Clear
9:52 PM 54.0 °F 46.9 °F 77% 30.12 in 10.0 mi Calm Calm - N/A   Clear
10:52 PM 55.0 °F 48.0 °F 77% 30.14 in 10.0 mi Calm Calm - N/A   Clear
11:52 PM 50.0 °F 46.4 °F 87% 30.14 in 9.0 mi Calm Calm - N/A   Clear